Location: Ostrava
(49.8330°N, 18.2830°E)
Time: 09:55:21
(UTC+02:00)

Transit 2A - All Passes

Search period start: 28 June 2016 00:00
Search period end: 08 July 2016 00:00
Orbit: 592 x 968 km, 66.7° (Epoch: 27 June)

Date Brightness Start Highest point End Pass type
(mag) Time Alt. Az. Time Alt. Az. Time Alt. Az.
28 Jun - 01:32:59 10° WSW 01:38:28 42° NW 01:44:24 10° NNE visible
28 Jun - 03:19:10 10° WNW 03:23:28 19° NNW 03:27:55 10° NNE visible
28 Jun - 05:05:01 10° NNW 05:09:12 18° N 05:13:25 10° NE daylight
28 Jun - 06:48:43 10° NNW 06:54:27 34° NE 07:00:10 10° E daylight
28 Jun - 08:31:57 10° NW 08:38:23 78° WSW 08:44:37 10° SSE daylight
28 Jun - 10:16:46 10° WNW 10:20:43 17° WSW 10:24:34 10° SW daylight
28 Jun - 23:16:03 10° S 23:21:11 38° ESE 23:26:46 10° NE visible
29 Jun - 00:58:42 10° WSW 01:04:19 52° NW 01:10:27 10° NNE visible
29 Jun - 02:44:32 10° WNW 02:49:04 21° NNW 02:53:49 10° NNE visible
29 Jun - 04:30:46 10° NW 04:34:46 17° N 04:38:49 10° NE daylight
29 Jun - 06:14:44 10° NNW 06:20:11 29° NNE 06:25:37 10° E daylight
29 Jun - 07:57:57 10° NW 08:04:25 83° NE 08:10:41 10° SE daylight
29 Jun - 09:42:10 10° WNW 09:47:03 24° WSW 09:51:48 10° SSW daylight
29 Jun - 22:42:43 10° SSE 22:47:26 28° ESE 22:52:31 10° NE visible
30 Jun - 00:24:31 10° SW 00:30:14 67° NW 00:36:29 10° NE visible
30 Jun - 02:09:54 10° WNW 02:14:43 24° NNW 02:19:46 10° NNE visible
30 Jun - 03:56:23 10° NW 04:00:18 17° N 04:04:18 10° NE visible
30 Jun - 05:40:45 10° NNW 05:45:53 25° NNE 05:51:01 10° E daylight
30 Jun - 07:23:58 10° NNW 07:30:23 66° NE 07:36:37 10° SE daylight
30 Jun - 09:07:48 10° NW 09:13:19 32° WSW 09:18:41 10° S daylight
30 Jun - 22:09:40 10° SSE 22:13:45 21° ESE 22:18:04 10° ENE visible
30 Jun - 23:50:29 10° SW 23:56:13 85° NW 00:02:30 10° NE visible
01 Jul - 01:35:20 10° W 01:40:24 28° NNW 01:45:46 10° NNE visible
01 Jul - 03:21:54 10° NW 03:25:51 17° N 03:29:54 10° NE visible
01 Jul - 05:06:43 10° NNW 05:11:32 22° NNE 05:16:22 10° ENE daylight
01 Jul - 06:50:01 10° NNW 06:56:17 52° NE 07:02:25 10° ESE daylight
01 Jul - 08:33:35 10° NW 08:39:33 42° WSW 08:45:17 10° S daylight
01 Jul - 21:37:04 10° SE 21:40:07 15° E 21:43:17 10° ENE visible
01 Jul - 23:16:35 10° SSW 23:22:15 74° ESE 23:28:28 10° NE visible
02 Jul - 01:00:50 10° W 01:06:08 33° NW 01:11:48 10° NNE visible
02 Jul - 02:47:20 10° NW 02:51:25 18° N 02:55:35 10° NNE visible
02 Jul - 04:32:38 10° NNW 04:37:09 20° NNE 04:41:41 10° ENE daylight
02 Jul - 06:16:04 10° NNW 06:22:09 43° NE 06:28:06 10° ESE daylight
02 Jul - 07:59:27 10° NW 08:05:42 56° WSW 08:11:43 10° SSE daylight
02 Jul - 09:46:07 10° W 09:47:38 11° W 09:49:08 10° WSW daylight
02 Jul - 22:42:49 10° SSW 22:48:22 56° ESE 22:54:24 10° NE visible
03 Jul - 00:26:24 10° WSW 00:31:55 40° NW 00:37:51 10° NNE visible
03 Jul - 02:12:42 10° WNW 02:16:59 19° NNW 02:21:23 10° NNE visible
03 Jul - 03:58:28 10° NNW 04:02:43 18° NNE 04:07:01 10° NE visible
03 Jul - 05:42:07 10° NNW 05:47:56 35° NE 05:53:41 10° E daylight
03 Jul - 07:25:23 10° NW 07:31:48 73° WSW 07:37:58 10° SSE daylight
03 Jul - 09:10:27 10° WNW 09:14:02 16° WSW 09:17:32 10° SW daylight
03 Jul - 22:09:14 10° S 22:14:32 41° ESE 22:20:16 10° NE visible
03 Jul - 23:52:06 10° WSW 23:57:46 50° NW 00:03:53 10° NNE visible
04 Jul - 01:38:03 10° WNW 01:42:35 21° NNW 01:47:17 10° NNE visible
04 Jul - 03:24:13 10° NNW 03:28:17 17° N 03:32:24 10° NE visible
04 Jul - 05:08:09 10° NNW 05:13:41 30° NNE 05:19:10 10° E daylight
04 Jul - 06:51:23 10° NW 06:57:50 88° NE 07:04:04 10° SE daylight
04 Jul - 08:35:44 10° WNW 08:40:23 22° WSW 08:44:53 10° SSW daylight
04 Jul - 21:35:51 10° S 21:40:45 31° ESE 21:46:03 10° NE visible
04 Jul - 23:17:54 10° SW 23:23:40 63° NW 23:29:55 10° NNE visible
05 Jul - 01:03:25 10° WNW 01:08:13 24° NNW 01:13:14 10° NNE visible
05 Jul - 02:49:52 10° NW 02:53:50 17° N 02:57:52 10° NE visible
05 Jul - 04:34:09 10° NNW 04:39:23 26° NNE 04:44:35 10° E daylight
05 Jul - 06:17:23 10° NW 06:23:49 70° NE 06:30:02 10° SE daylight
05 Jul - 08:01:19 10° NW 08:06:41 29° WSW 08:11:51 10° SSW daylight
05 Jul - 21:02:43 10° SSE 21:07:03 23° ESE 21:11:39 10° ENE daylight
05 Jul - 22:43:50 10° SW 22:49:37 80° NW 22:55:56 10° NE visible
06 Jul - 00:28:49 10° W 00:33:54 27° NNW 00:39:13 10° NNE visible
06 Jul - 02:15:24 10° NW 02:19:23 17° N 02:23:25 10° NE visible
06 Jul - 04:00:09 10° NNW 04:05:03 22° NNE 04:09:57 10° ENE visible
06 Jul - 05:43:25 10° NNW 05:49:45 56° NE 05:55:52 10° SE daylight
06 Jul - 07:27:04 10° NW 07:32:55 39° WSW 07:38:31 10° S daylight
06 Jul - 20:29:57 10° SE 20:33:24 16° ESE 20:37:01 10° ENE daylight
06 Jul - 22:09:53 10° SSW 22:15:38 80° ESE 22:21:56 10° NE visible
06 Jul - 23:54:18 10° W 23:59:37 32° NNW 00:05:14 10° NNE visible
07 Jul - 01:40:51 10° NW 01:44:56 18° N 01:49:06 10° NNE visible
07 Jul - 03:26:04 10° NNW 03:30:40 20° NNE 03:35:16 10° ENE visible
07 Jul - 05:09:28 10° NNW 05:15:37 45° NE 05:21:35 10° ESE daylight
07 Jul - 06:52:55 10° NW 06:59:05 51° WSW 07:05:00 10° S daylight
07 Jul - 19:58:04 10° ESE 19:59:48 11° E 20:01:36 10° E daylight
07 Jul - 21:36:05 10° SSW 21:41:43 60° ESE 21:47:52 10° NE visible
07 Jul - 23:19:52 10° WSW 23:25:23 38° NW 23:31:17 10° NNE visible
